AirNav   Everest Fuels
 
 485 users online  

8T8 San Geronimo Airpark
San Antonio, Texas, USA

GOING TO SAN ANTONIO?


FAA INFORMATION EFFECTIVE 13 AUGUST 2020

Location

FAA Identifier: 8T8
Lat/Long: 29-30-36.7000N 098-47-54.3000W
29-30.611667N 098-47.905000W
29.5101944,-98.7984167
(estimated)
Elevation: 1040 ft. / 317 m (estimated)
Variation: 07E (1985)
From city: 10 miles W of SAN ANTONIO, TX
Time zone: UTC -5 (UTC -6 during Standard Time)
Zip code: 78253

Airport Operations

Airport use: Open to the public
Activation date: 05/1981
Control tower: no
ARTCC: HOUSTON CENTER
FSS: SAN ANGELO FLIGHT SERVICE STATION
NOTAMs facility: SJT (NOTAM-D service available)
Attendance: UNATNDD
Wind indicator: yes
Segmented circle: no

Airport Communications

CTAF: 122.9
WX AWOS-3 at CVB (10 nm S): 119.25 (830-931-0232)
WX AWOS-3 at 5C1 (14 nm NE): 118.725 (830-755-9099)
WX ASOS at SAT (17 nm E): PHONE 210-805-5583

Nearby radio navigation aids

VOR radial/distance  VOR name  Freq  Var
SATr237/19.3SAN ANTONIO VORTAC116.8008E
SSFr300/(23.9)STINSON VOR108.4009E
RNDr264/26.8RANDOLPH VORTAC112.3005E
CSIr131/32.9CENTER POINT VORTAC117.5008E

 
NDB name  Hdg/Dist  Freq  Var  ID
ALAMO240/13.336804EAN .- -.
HONDO059/21.232908EHMA .... -- .-
DEVINE011/23.535907EHHH .... .... ....

Airport Services

Parking: tiedowns

Runway Information

Runway 17/35

Dimensions: 3000 x 40 ft. / 914 x 12 m
SHOULDERS SOFT & MUDDY WHEN WET.
Surface: asphalt, in good condition
Runway edge markings: NRS 35 FT HIGH. CNTRLN 4 INCH WIDE BY 10 FT LONG WITH 30 FT SPACES.
RUNWAY 17  RUNWAY 35
Latitude: 29-30.858538N29-30.363448N
Longitude: 098-47.905867W098-47.904235W
Elevation: 1037.0 ft.1005.0 ft.
Traffic pattern: leftleft
Runway heading: 173 magnetic, 180 true353 magnetic, 360 true
Markings: NSTD, in good conditionNSTD, in good condition
Obstructions: 20 ft. trees, 201 ft. from runway, 100 ft. left of centerline
10-20 FT TREES 100 FT EAST OF CNTRLN FULL LEN OF RWY.
25 ft. trees, 201 ft. from runway, 92 ft. right of centerline
10-20 FT TREES 100 FT EAST OF CNTRLN FULL LEN OF RWY.

Airport Ownership and Management from official FAA records

Ownership: Privately-owned
Owner: SAN GERONIMO AIRPARK P.O.A.
15464 CULEBRA BOX 30
SAN ANTONIO, TX 78253
Phone 210-488-5088
RON O'DEA, S.G.A.P.O.A.
Manager: LEWIS MASON
15464 CULEBRA BOX 27
SAN ANTONIO, TX 78253
Phone 210-688-9072

Airport Operational Statistics

Aircraft based on the field: 103
Single engine airplanes: 100
Helicopters: 1
Ultralights: 2
    
Aircraft operations: avg 40/week *
71% local general aviation
29% transient general aviation
* for 12-month period ending 08 May 2020

Additional Remarks

+15 FT HNGRS LCTD 112 FT WEST ALG RWY 17/35.
NO TOUCH & GO OR STOP & GO LANDINGS AT NIGHT. LIMIT 2 TOUCH & GO DURG DAYTIME.
FOR CD CTC SAN ANTONIO APCH AT 210-805-5516.
POWERED PARACHUTES PROHIBITED.
WILDLIFE ON & INVOF ARPT.

Instrument Procedures

There are no published instrument procedures at 8T8.

Some nearby airports with instrument procedures:

KCVB - Castroville Municipal Airport (10 nm S)
KSKF - Kelly Field Airport (14 nm SE)
5C1 - Boerne Stage Field Airport (14 nm NE)
KSAT - San Antonio International Airport (17 nm E)
KSSF - Stinson Municipal Airport (20 nm SE)
 
Loc | Ops | Rwys | IFR | FBO | Links
Com | Nav | Svcs | Stats | Notes
Area around 8T8 (San Geronimo Airpark)
 
Road maps at: MapQuest Bing Google
 
Aerial photo
WARNING: Photo may not be current or correct
Aerial photo of 8T8 (San Geronimo Airpark)
Photo by Brian Goode
Photo taken 15-Jan-2014
looking north.

Do you have a better or more recent aerial photo of San Geronimo Airpark that you would like to share? If so, please send us your photo.

 
Sectional chart

 
Airport distance calculator
Flying to San Geronimo Airpark? Find the distance to fly.

From to 8T8

Sunrise and sunset
Times for 14-Aug-2020
 Local
(UTC-5)
 Zulu
(UTC)
Morning civil twilight06:3911:39
Sunrise07:0412:04
Sunset20:1501:15
Evening civil twilight20:4001:40

Current date and time
Zulu (UTC)  14-Aug-2020 06:33:20
Local (UTC-5)  14-Aug-2020 01:33:20
 
METAR
KCVB 
10nm S 
140615Z AUTO 15004KT 7SM CLR 29/21 A2997 RMK AO2 T02890205
K5C1 
14nm NE 
140615Z AUTO 18005KT 10SM CLR 26/19 A3001 RMK AO1
KSKF 
15nm SE 
140556Z AUTO 16007KT 10SM CLR 28/22 A2994 RMK AO2 SLPNO T02790216 10377 20279 403870279 52012 $
KSAT 
17nm E 
140551Z 18009KT 10SM FEW250 28/22 A2996 RMK AO2 SLP125 T02830217 10372 20283 403890256 51013
KSSF 
20nm SE 
140553Z AUTO 17009KT 10SM CLR 27/22 A2993 RMK AO2 SLP122 T02670222 10367 20267 51012 $
TAF
KSKF 
15nm SE 
140200Z 1402/1508 14009KT 9999 SKC QNH2988INS BECMG 1411/1412 16005KT 9999 SCT008 QNH2997INS TEMPO 1412/1414 BKN008 BECMG 1413/1414 17009KT 9999 FEW025 QNH2982INS TX39/1422Z TN25/1411Z LAST NO AMDS AFT 1404 NEXT 1410
KSAT 
17nm E 
140531Z 1406/1512 16012G22KT P6SM FEW250 FM140900 18010KT P6SM SCT012 FM141500 20010KT P6SM FEW250 FM150200 16012KT P6SM SKC
NOTAMs
Click for the latest NOTAMs
NOTAMs are issued by the DoD/FAA and will open in a separate window not controlled by AirNav.

 

 
 

Would you like to see your business listed on this page?

 If your business provides an interesting product or service to pilots, flight crews, aircraft, or users of the San Geronimo Airpark, you should consider listing it here.  To start the listing process, click on the button below
 
Add a business
 

Other Pages about San Geronimo Airpark

Update a link
 
Copyright © AirNav, LLC. All rights reserved. Privacy Policy  Contact